"Pseudo-MPEC" for P22mZMk

Created 2026 May 8 1:35:06 UT using Find_Orb

Click here for an explanation of pseudo-MPECs

 
 Astrometry: 
     P22mZMk*0C2026 05 06.30968912 01 45.541-30 54 44.26   ~569Z 21.18wXNEOCPF52
     P22mZMk 0C2026 05 06.32041412 01 46.347-30 54 55.01   ~569Z 21.62wXNEOCPF52
     P22mZMk 0C2026 05 06.33113012 01 47.160-30 55 05.51   ~569Z 21.76wXNEOCPF52
     P22mZMk 0C2026 05 06.34154912 01 47.951-30 55 15.91   ~569Z 21.74wXNEOCPF52
     P22mZMk 0C2026 05 06.40315212 01 52.827-30 56 13.61   ~56GZ 21.26GVNEOCPF52
     P22mZMk 0C2026 05 06.40400412 01 52.890-30 56 14.49   ~56GZ 20.96GVNEOCPF52
     P22mZMk 1C2026 05 07.15178412 03 21.971-31 09 20.30   ~574Z       VNEOCPI52
     P22mZMk 1C2026 05 07.15691112 03 22.414-31 09 25.42   ~574Z       VNEOCPI52
     P22mZMk 1C2026 05 07.16203212 03 22.802-31 09 31.57   ~574Z       VNEOCPI52
     P22mZMk 1C2026 05 07.16715912 03 23.346-31 09 36.83   ~574Z 22.05GVNEOCPI52
     P22mZMk KC2026 05 07.20724312 03 26.697-31 10 19.51   ~575o 21.1 GWNEOCPH01
     P22mZMk KC2026 05 07.21259812 03 27.191-31 10 24.86   ~575o 21.1 GWNEOCPH01

Station data:
(F52) Pan-STARRS 2, Haleakala  (N20.707382 W156.255910)  US/Hawaii.
   Observers J. Herman, T. Lowe, P. Minguez, A. Schultz, I. Smith. Measurers
   K. Chambers, T. de Boer, J. Fairlamb, H. Gao, M. Huber, C.-C. Lin, E.
   Magnier, Y. Ramanjooloo, R. Wainscoat, R. Weryk. 1.8-m Ritchey-Chrétien +
   CCD.
(H01) Magdalena Ridge Observatory, Socorro  (N33.984833 W107.189333)  US/New
   Mexico.  Observers W. H. Ryan, E. V. Ryan. Measurer W. H. Ryan. 2.4-m
   f/8.9 reflector + CCD.
(I52) Steward Observatory, Mt. Lemmon Station  (N32.442570 W110.788920)
   US/Arizona. Measurers T. Beuden, V. F. Carvajal, D. Fay, J. B. Fazekas, D.
   C. Fuls, A. R. Gibbs, A. D. Grauer, H. Gröller, J. K. Hogan, R. A.
   Kowalski, S. M. Larson, G. J. Leonard, D. Rankin, R. L. Seaman, F. C.
   Shelly, K. W. Wierzchoś. 1.0-m prime focus + CCD.

Orbital elements:  P22mZMk
   Perihelion 2026 Jun 2.519006 +/- 0.349 TT = 12:27:22.1 (JD 2461194.019006)
Epoch 2026 May  7.0 TT = JDT 2461167.5   Earth MOID: 0.0401      AutoNEOCP
M 353.008083134 +/- 0.6             (J2000 ecliptic)
n   0.263656819 +/- 0.0278          Peri.  357.959789 +/- 2.5
a   2.408666709 +/- 0.169           Node   254.219958 +/- 1.7
e   0.56223200 +/- 0.0324           Incl.    5.830892 +/- 0.32
P   3.73822                H 24.30  G  0.15   U 10.3
q 1.054437193 +/- 0.00401    Q 3.762896226 +/- 0.342
From 12 observations 2026 May 6-7 (21.7 hr); mean residual 0".23
Residuals in arcseconds: 
260506 F52  .11+  .08-    260506 F52  .06+  .04+    260507 I52  .86-  .32-    
260506 F52  .00   .01-    260506 F52  .03-  .07-    260507 I52  .16+  .03-    
260506 F52  .04-  .15+    260507 I52  .40+  .22-    260507 H01  .06+  .06+    
260506 F52  .12-  .02-    260507 I52  .11+  .27+    260507 H01  .08+  .15+    

Ephemerides (geocentric):
Date (UTC) HH   RA             Dec           delta  r     elong  mag " sig PA
---- --------  ------------   ------------  ------ ------ -----  --- --------
2026 05 08 02  12 05 18.994   -31 25 00.29  .11955 1.1012 138.2 21.4 6.46 127
2026 05 08 03  12 05 24.597   -31 25 46.29  .11937 1.1010 138.2 21.4 6.92 127
2026 05 08 04  12 05 30.229   -31 26 32.39  .11918 1.1009 138.2 21.4 7.40 127
2026 05 08 05  12 05 35.890   -31 27 18.59  .11900 1.1007 138.2 21.4 7.89 126
2026 05 08 06  12 05 41.579   -31 28 04.88  .11882 1.1006 138.2 21.4 8.40 126
2026 05 08 07  12 05 47.298   -31 28 51.28  .11864 1.1004 138.2 21.4 8.93 126
2026 05 08 08  12 05 53.045   -31 29 37.78  .11846 1.1003 138.1 21.4 9.48 126
2026 05 08 09  12 05 58.822   -31 30 24.38  .11828 1.1001 138.1 21.4 10.0 126
2026 05 08 10  12 06 04.628   -31 31 11.09  .11810 1.1000 138.1 21.4 10.6 126
2026 05 08 11  12 06 10.464   -31 31 57.89  .11792 1.0998 138.1 21.4 11.2 125
2026 05 08 12  12 06 16.329   -31 32 44.80  .11773 1.0997 138.1 21.4 11.8 125
2026 05 08 13  12 06 22.225   -31 33 31.80  .11755 1.0996 138.1 21.4 12.5 125
2026 05 08 14  12 06 28.150   -31 34 18.91  .11737 1.0994 138.1 21.4 13.1 125
2026 05 08 15  12 06 34.105   -31 35 06.13  .11719 1.0993 138.1 21.4 13.8 125
2026 05 08 16  12 06 40.090   -31 35 53.44  .11701 1.0991 138.1 21.4 14.5 125
2026 05 08 17  12 06 46.105   -31 36 40.86  .11683 1.0990 138.1 21.4 15.2 125
2026 05 08 18  12 06 52.151   -31 37 28.39  .11665 1.0988 138.0 21.4 15.9 125
2026 05 08 19  12 06 58.228   -31 38 16.02  .11647 1.0987 138.0 21.4 16.7 125
2026 05 08 20  12 07 04.335   -31 39 03.75  .11629 1.0985 138.0 21.4 17.5 124
2026 05 08 21  12 07 10.473   -31 39 51.58  .11611 1.0984 138.0 21.4 18.2 124
2026 05 08 22  12 07 16.642   -31 40 39.53  .11593 1.0983 138.0 21.3 19.1 124
2026 05 08 23  12 07 22.842   -31 41 27.57  .11575 1.0981 138.0 21.3 19.9 124
2026 05 09 00  12 07 29.074   -31 42 15.73  .11557 1.0980 138.0 21.3 20.7 124
2026 05 09 01  12 07 35.336   -31 43 03.99  .11539 1.0978 138.0 21.3 21.6 124
2026 05 09 02  12 07 41.631   -31 43 52.35  .11521 1.0977 138.0 21.3 22.5 124
2026 05 09 03  12 07 47.957   -31 44 40.82  .11503 1.0975 138.0 21.3 23.4 124
2026 05 09 04  12 07 54.315   -31 45 29.40  .11485 1.0974 138.0 21.3 24.3 124
2026 05 09 05  12 08 00.704   -31 46 18.09  .11467 1.0973 137.9 21.3 25.3 124
2026 05 09 06  12 08 07.126   -31 47 06.89  .11449 1.0971 137.9 21.3 26.3 124
2026 05 09 07  12 08 13.580   -31 47 55.79  .11431 1.0970 137.9 21.3 27.2 124
2026 05 09 08  12 08 20.067   -31 48 44.80  .11413 1.0968 137.9 21.3 28.3 124
2026 05 09 09  12 08 26.586   -31 49 33.92  .11395 1.0967 137.9 21.3 29.3 124
2026 05 09 10  12 08 33.138   -31 50 23.15  .11377 1.0965 137.9 21.3 30.4 124
2026 05 09 11  12 08 39.723   -31 51 12.48  .11359 1.0964 137.9 21.3 31.4 123
2026 05 09 12  12 08 46.340   -31 52 01.93  .11341 1.0963 137.9 21.3 32.5 123
2026 05 09 13  12 08 52.991   -31 52 51.49  .11323 1.0961 137.9 21.3 33.7 123
2026 05 09 14  12 08 59.675   -31 53 41.15  .11305 1.0960 137.9 21.3 34.8 123
2026 05 09 15  12 09 06.393   -31 54 30.93  .11287 1.0958 137.9 21.3 36.0 123
2026 05 09 16  12 09 13.144   -31 55 20.82  .11269 1.0957 137.9 21.3 37.2 123
2026 05 09 17  12 09 19.929   -31 56 10.82  .11251 1.0956 137.8 21.3 38.4 123
2026 05 09 18  12 09 26.748   -31 57 00.93  .11233 1.0954 137.8 21.3 39.7 123
2026 05 09 19  12 09 33.601   -31 57 51.16  .11215 1.0953 137.8 21.3 40.9 123
2026 05 09 20  12 09 40.488   -31 58 41.49  .11197 1.0951 137.8 21.3 42.2 123
2026 05 09 21  12 09 47.410   -31 59 31.94  .11180 1.0950 137.8 21.3 43.5 123
2026 05 09 22  12 09 54.366   -32 00 22.50  .11162 1.0949 137.8 21.3 44.9 123
2026 05 09 23  12 10 01.356   -32 01 13.17  .11144 1.0947 137.8 21.3 46.3 123
2026 05 10 00  12 10 08.382   -32 02 03.96  .11126 1.0946 137.8 21.3 47.6 123
2026 05 10 01  12 10 15.443   -32 02 54.86  .11108 1.0945 137.8 21.3 49.1 123